ISS DEB (44306 NORAD) Tracking and Keplerian Element Data

This shows tracking and keplerian element data for the satellite.

Feedback or suggestion? Click here.




ElementValue
Catalog44306
NameISS DEB
Epoch Orbit680
Epoch Day193.60959529
Epoch Year2019
RAAN235.0535
Inclination51.6398
Eccentricity0.0007741
Argument of Perigee136.5651
Mean Anonmoly223.595
Mean Motion15.51562227
Decay Rate2.847E-05
L11 44306U 98067QD 19193.60959529 .00002847 00000-0 54891-4 0 9997
L22 44306 51.6398 235.0535 0007741 136.5651 223.5950 15.51562227 6806

Live tracking and technical data element details for ISS DEB (NORAD 44306). ISS DEB can be tracked NOW for your location showing map with azimuth and elevation plus other details from your city location.

Track the satellite on the map from your city or location and see movement details for azimuth, elevation, latitude, longitude, range, height, and movement on the map or in text.







IsCatalogInMostPopularTable: catalog: 44306, numindb: 32
Update: records affected: 1



GetName: 44306 ISS DEB

Hit Count: updated at: Tue, 16 Jul 2019 21:16:11 GMT